Tracking 30746 objects as of 19-Jun-2025
HD Live streaming from Space Station
objects crossing your sky now

BLOCK DM-SL R/B

Track BLOCK DM-SL R/B now!
10-day predictions


NORAD ID: 32730
Int'l Code: 2008-013B
Perigee: 217.6 km
Apogee: 20,074.9 km
Inclination: 0.5 °
Period: 352.1 minutes
Semi major axis: 16517 km
RCS: 20.4628 m2 (large)
Launch date: March 19, 2008
Source: Sea Launch (SEAL)
Launch site: SEA LAUNCH (SEAL)

Note: This is a ROCKET BODY
Your satellite tracking list
Your tracking list is empty




NASA's NSSDC Master Catalog

Two Line Element Set (TLE):
1 32730U 08013B   25170.17187821  .00018831  00000-0  81606-3 0  9992
2 32730   0.5290 319.9122 6011085 345.0108  12.3216  4.08974124188968
Source of the keplerian elements: AFSPC